User: anonymous   Login
Location: Caltech
(34.1382°N, 118.1253°W)
Time: 18:27:35
(UTC-08:00)
Language:

Gurwin Techsat 1B - Orbit

View from above orbital plane
View from above orbital plane
View from above satellite
View from above satellite

Ground track
Ground track

The orbit data is extracted from the following two-line orbital elements,

1 25397U 98043D   16336.90914043 -.00000001 +00000-0 +18638-4 0  9991
2 25397 098.5875 277.6444 0001074 157.6382 202.4844 14.23609678955502
Epoch (UTC): 01 December 2016 21:49:09
Eccentricity: 0.0001074
inclination: 98.5875°
perigee height: 812 km
apogee height: 814 km
right ascension of ascending node: 277.6444°
argument of perigee: 157.6382°
revolutions per day: 14.23609678
mean anomaly at epoch: 202.4844°
orbit number at epoch: 95550

The dashed part of the orbit path shows where the satellite is in the earth's shadow,  

DLR